FW6033 Weather Reports


Display with metric or nautical units.
time (UTC)temp
F
wind
direction
speed
MPH
gust
MPH
rain 1hr
in
rain 24hr
in
rain mn
in
humidity
%
barometer
mb
20260906214505 79 198 8.0 21.0 0.00 0.00 0.00 23 996.9
20260906213005 78 250 10.0 21.0 0.00 0.00 0.00 23 997.0
20260906211501 78 245 6.0 12.0 0.00 0.00 0.00 24 997.1
20260906210059 78 201 6.0 18.0 0.00 0.00 0.00 24 997.4
20260906204558 79 196 8.0 14.0 0.00 0.00 0.00 24 997.5
20260906203111 78 127 2.0 15.0 0.00 0.00 0.00 27 997.6
20260906201603 79 237 3.0 9.0 0.00 0.00 0.00 27 997.9
20260906200053 79 196 7.0 24.0 0.00 0.00 0.00 26 998.1
20260906194604 80 153 4.0 12.0 0.00 0.00 0.00 27 998.3
20260906193105 80 153 5.0 11.0 0.00 0.00 0.00 26 998.5
20260906191557 79 150 6.0 12.0 0.00 0.00 0.00 27 998.8
20260906190047 78 197 3.0 15.0 0.00 0.00 0.00 29 999.0
20260906184547 76 157 3.0 14.0 0.00 0.00 0.00 30 999.3
20260906183043 79 190 3.0 8.0 0.00 0.00 0.00 28 999.5
20260906181603 80 189 2.0 11.0 0.00 0.00 0.00 27 999.9
20260906180038 78 236 5.0 12.0 0.00 0.00 0.00 28 1000.0
20260906174536 74 109 3.0 15.0 0.00 0.00 0.00 32 1000.4
20260906173032 76 204 7.0 14.0 0.00 0.00 0.00 29 1000.6
20260906171530 74 194 1.0 8.0 0.00 0.00 0.00 31 1000.9
20260906170029 72 255 7.0 15.0 0.00 0.00 0.00 32 1000.9
20260906164537 72 194 3.0 10.0 0.00 0.00 0.00 32 1001.0
20260906163027 75 171 1.0 9.0 0.00 0.00 0.00 32 1000.9
20260906161526 75 74 5.0 9.0 0.00 0.00 0.00 31 1001.2
20260906160024 74 155 1.0 4.0 0.00 0.00 0.00 32 1001.2
20260906154535 73 159 2.0 7.0 0.00 0.00 0.00 34 1001.3
20260906153021 72 149 2.0 6.0 0.00 0.00 0.00 36 1001.4
20260906151514 69 113 1.0 4.0 0.00 0.00 0.00 38 1001.4
20260906150010 67 91 2.0 4.0 0.00 0.00 0.00 40 1001.6
20260906144506 65 156 0.0 1.0 0.00 0.00 0.00 43 1001.7
20260906143024 63 155 0.0 3.0 0.00 0.00 0.00 45 1001.7
20260906141530 62 196 5.0 12.0 0.00 0.00 0.00 43 1001.7
20260906140020 61 279 13.0 16.0 0.00 0.00 0.00 43 1001.5
20260906134521 56 297 14.0 17.0 0.00 0.00 0.00 48 1001.5
20260906133014 57 278 15.0 20.0 0.00 0.00 0.00 46 1001.3
20260906131512 56 279 15.0 18.0 0.00 0.00 0.00 48 1001.2
20260906130010 55 292 14.0 17.0 0.00 0.00 0.00 50 1001.3
20260906124510 54 288 14.0 18.0 0.00 0.00 0.00 51 1001.3
20260906123011 53 285 14.0 18.0 0.00 0.00 0.00 53 1001.2
20260906121508 53 279 14.0 19.0 0.00 0.00 0.00 54 1001.0
20260906120006 52 282 14.0 18.0 0.00 0.00 0.00 57 1000.9
20260906114515 53 281 15.0 20.0 0.00 0.00 0.00 56 1001.0
20260906113007 53 282 15.0 19.0 0.00 0.00 0.00 55 1001.1
20260906111503 53 285 15.0 19.0 0.00 0.00 0.00 56 1000.9
20260906110002 55 284 16.0 22.0 0.00 0.00 0.00 53 1000.9
20260906104502 53 289 17.0 22.0 0.00 0.00 0.00 56 1000.9
20260906103101 54 288 15.0 21.0 0.00 0.00 0.00 55 1000.9
20260906101559 54 271 17.0 22.0 0.00 0.00 0.00 55 1001.0
20260906100057 54 288 16.0 21.0 0.00 0.00 0.00 55 1000.9
20260906094611 54 291 13.0 18.0 0.00 0.00 0.00 54 1000.9
20260906093127 54 254 14.0 18.0 0.00 0.00 0.00 54 1000.9
20260906091603 55 279 14.0 19.0 0.00 0.00 0.00 54 1000.9
20260906090051 55 284 12.0 16.0 0.00 0.00 0.00 54 1000.9
20260906084551 55 283 12.0 15.0 0.00 0.00 0.00 54 1001.0
20260906083050 55 265 13.0 17.0 0.00 0.00 0.00 53 1000.8
20260906081549 55 271 9.0 14.0 0.00 0.00 0.00 54 1001.2
20260906080048 54 269 8.0 11.0 0.00 0.00 0.00 56 1001.2
20260906074547 54 263 9.0 14.0 0.00 0.00 0.00 55 1001.3
20260906073043 54 278 12.0 15.0 0.00 0.00 0.00 56 1001.0
20260906071540 55 279 10.0 15.0 0.00 0.00 0.00 54 1000.9
20260906070039 56 267 10.0 17.0 0.00 0.00 0.00 53 1001.0
20260906064537 56 273 14.0 19.0 0.00 0.00 0.00 54 1000.6
20260906063036 56 281 15.0 20.0 0.00 0.00 0.00 54 1000.4
20260906061533 56 284 15.0 19.0 0.00 0.00 0.00 55 1000.3
20260906060030 56 279 14.0 18.0 0.00 0.00 0.00 55 1000.4
20260906054532 57 284 15.0 19.0 0.00 0.00 0.00 54 1000.4
20260906053029 57 284 14.0 18.0 0.00 0.00 0.00 54 1000.4
20260906051532 58 273 16.0 20.0 0.00 0.00 0.00 54 1000.5
20260906050028 57 285 14.0 19.0 0.00 0.00 0.00 55 1000.2
20260906044531 58 297 15.0 19.0 0.00 0.00 0.00 54 1000.5
20260906043027 58 274 14.0 20.0 0.00 0.00 0.00 53 1000.6
20260906041526 57 275 15.0 20.0 0.00 0.00 0.00 55 1000.7
20260906040030 57 277 15.0 21.0 0.00 0.00 0.00 55 1000.7
20260906034526 58 281 15.0 19.0 0.00 0.00 0.00 54 1000.7
20260906033036 58 307 14.0 18.0 0.00 0.00 0.00 54 1000.9
20260906031534 59 281 13.0 16.0 0.00 0.00 0.00 53 1000.7
20260906030022 60 275 12.0 16.0 0.00 0.00 0.00 51 1000.7
20260906024540 60 290 12.0 15.0 0.00 0.00 0.00 51 1000.5
20260906023025 60 286 10.0 13.0 0.00 0.00 0.00 52 1000.3
20260906021521 62 286 6.0 8.0 0.00 0.00 0.00 49 1000.0
20260906020020 63 271 6.0 8.0 0.00 0.00 0.00 48 1000.0
20260906014534 64 297 2.0 4.0 0.00 0.00 0.00 47 1000.0
20260906013036 66 141 1.0 5.0 0.00 0.00 0.00 44 1000.0
20260906011520 67 182 1.0 9.0 0.00 0.00 0.00 43 1000.0
20260906010024 68 189 0.0 2.0 0.00 0.00 0.00 41 1000.1
20260906004519 69 174 1.0 5.0 0.00 0.00 0.00 39 999.9
20260906003017 70 201 4.0 8.0 0.00 0.00 0.00 38 999.9
20260906001521 71 130 5.0 11.0 0.00 0.00 0.00 37 999.7
20260906000017 73 142 4.0 12.0 0.00 0.00 0.00 35 999.6
20260905234515 75 192 2.0 7.0 0.00 0.00 0.00 27 999.5
20260905233015 75 191 0.0 9.0 0.00 0.00 0.00 27 999.2
20260905231516 76 200 4.0 15.0 0.00 0.00 0.00 26 999.1
20260905230013 76 205 6.0 13.0 0.00 0.00 0.00 26 998.7
20260905224513 74 244 6.0 18.0 0.00 0.00 0.00 28 998.7
20260905223012 74 234 10.0 16.0 0.00 0.00 0.00 27 998.8
20260905221511 74 192 5.0 17.0 0.00 0.00 0.00 27 998.8
20260905220011 74 227 6.0 16.0 0.00 0.00 0.00 25 998.8